STARLINK-36993, 67994

Orbit data source: Space-Track

STARLINK-36993, 67994 is a payload satellite owned by SpaceX/Seattle (US) in LEO that was launched on Fri, 27 Feb 2026 UTC via an FALCON 9 launch vehicle from the Air Force Eastern Test Range (AFETR). Payload-class satellites include a variety of spacecraft equipped with specific instruments for various scientific and technological missions. These include communications satellites like Starlink; space stations such as the ISS; scientific satellites like the Hubble; Earth observation satellites from companies like Planet Labs, Umbra, and HawkEye 360; GPS; miniature CubeSats for education and research; and military/defense satellites.

Loading next visibility...
Identifier
67994, 2026-039J
Orbit
LEO
Country
Flag of USUS
Related business
Manufacturer
SpaceX/Seattle
Mission
Operational Commercial Communications
Bus & Motor
STARLINK V2MO, Unknown motor
Mass
575 kg wet, ~530 kg dry
Launch date (UTC)
2026-02-27 (2 months ago)
Launch vehicle
FALCON 9
Launch site
Air Force Eastern Test Range (AFETR)
Object type
Payload
Rocket body
Debris
Shape & HBR
Box + 2 Pan, 17.7 m
Radar Cross Section
36.964 m²

Expand to show TLE details & history
Last TLE update: 8 hours ago

TLE from 8 hours ago
0 STARLINK-36993
1 67994U 26039J   26112.17266330  .00009592  00000-0  35754-3 0  9997
2 67994  43.0010 163.3460 0001585 275.7100  84.3571 15.27589015  8356
Epoch: 2026-04-22T04:08Z
TLE epoch observation values (Epoch: 2026-04-22T04:08:38.109Z)
Latitude
Longitude
-109.05069°
Altitude
482.691 km
Speed
7.626 km/s
True Right ascension
10h 53m 23s
True Declination
0° 00' 00"
Sunlit
Object was in full shadow at epoch
Visualization orbit readout
Latitude
Unknown
Longitude
Unknown
Altitude
Unknown
Speed
Unknown
Apparent Right ascension
Unknown
Apparent Declination
Unknown
Sunlit
N/A
Visualization observer readout
Local Sidereal Time
19:00:37
Azimuth
Unknown
Elevation
Unknown
Doppler factor
Unknown
Orbital elements
Apogee altitude
486.055 km
Perigee altitude
483.879 km
Semi-major axis
6,863.104 km
Eccentricity
0.00016
Inclination
43.001°
RAAN
163.346°
Arg. of periapsis
275.71°
True anomaly
84.37518°
Mean anomaly
84.3571°
Eccentric anomaly
84.36614°
Mean motion
3.81735 °/min
Orbital period
94.31 mins
BSTAR
0.00035754
Loading maneuver chart data...
Computing Atmospheric mass density...
Loading historical data...
Loading historical data...
Loading historical data...
Loading historical data...
Loading historical data...
Loading historical data...
Loading historical data...

Documentation

Showing up to 5 results
|